This is the latest recevied weather packets stored in our database for station/object K6CEG. If no packets are shown the sender has not sent any weather packets the latest 10 day(s).
| Time | Temp. | Humidity | Pressure | Rain* | Wind** | Luminosity | Snow |
|---|---|---|---|---|---|---|---|
| 1788548961 | 26.67° C | 47% | 1015.6 hPa | 0 mm | - | 679 W/m² | - |
| 1788548661 | 27.78° C | 45% | 1015.5 hPa | 0 mm | - | 726 W/m² | - |
| 1788548357 | 28.33° C | 45% | 1015.7 hPa | 0 mm | - | 738 W/m² | - |
| 1788548053 | 27.78° C | 46% | 1015.8 hPa | 0 mm | - | 755 W/m² | - |
| 1788547753 | 27.22° C | 47% | 1016.2 hPa | 0 mm | - | 771 W/m² | - |
| 1788547447 | 27.22° C | 47% | 1016.2 hPa | 0 mm | - | 727 W/m² | - |
| 1788547142 | 27.22° C | 48% | 1015.9 hPa | 0 mm | - | 729 W/m² | - |
| 1788546838 | 27.78° C | 47% | 1015.9 hPa | 0 mm | - | 737 W/m² | - |
| 1788546533 | 27.22° C | 48% | 1016 hPa | 0 mm | - | 771 W/m² | - |
| 1788546228 | 27.22° C | 48% | 1016.1 hPa | 0 mm | - | 819 W/m² | - |
| 1788545923 | 26.67° C | 48% | 1016.1 hPa | 0 mm | - | 779 W/m² | - |
| 1788545618 | 26.67° C | 49% | 1016 hPa | 0 mm | - | 780 W/m² | - |
| 1788545314 | 26.67° C | 48% | 1016.3 hPa | 0 mm | - | 760 W/m² | - |
| 1788545009 | 27.22° C | 50% | 1016.1 hPa | 0 mm | - | 765 W/m² | - |
| 1788544708 | 26.67° C | 49% | 1016.2 hPa | 0 mm | - | 742 W/m² | - |
| 1788544407 | 25.56° C | 51% | 1016.3 hPa | 0 mm | - | 698 W/m² | - |
| 1788544107 | 25° C | 52% | 1016.2 hPa | 0 mm | - | 722 W/m² | - |
| 1788543802 | 26.11° C | 50% | 1016 hPa | 0 mm | - | 752 W/m² | - |
| 1788543499 | 26.11° C | 49% | 1016.2 hPa | 0 mm | - | 727 W/m² | - |
| 1788543194 | 25.56° C | 51% | 1016.2 hPa | 0 mm | - | 703 W/m² | - |
| 1788542890 | 25.56° C | 52% | 1016.2 hPa | 0 mm | - | 674 W/m² | - |
| 1788542588 | 26.11° C | 49% | 1016.1 hPa | 0 mm | - | 676 W/m² | - |
| 1788542284 | 25.56° C | 51% | 1016.2 hPa | 0 mm | - | 671 W/m² | - |
| 1788541979 | 25.56° C | 52% | 1016 hPa | 0 mm | - | 587 W/m² | - |
| 1788541675 | 24.44° C | 53% | 1016 hPa | 0 mm | - | 540 W/m² | - |
* Rain latest hour (hover to see other rain measurements)
** Current wind speed in m/s (hover to see current wind gust speed)